Location: Aranbee
(34.0885°N, 118.2342°W)
Time: 00:02:54
(UTC+00:00)

A-11 Canister half - Pass Details

Date: 05 August 2021
Orbit: 1515 x 1685 km, 47.2° (Epoch: 22 September)

Event Time Altitude Azimuth Distance (km) Brightness Sun altitude
Rises 07:52:58 0° 299° (WNW) 4,930 12.0 -39.0°
Reaches altitude 10° 07:56:34 10° 290° (WNW) 3,946 11.3 -39.0°
Enters shadow 08:01:10 25° 267° (W) 2,950 10.4 -39.0°
